This is the latest recevied weather packets stored in our database for station/object AA4XD. If no packets are shown the sender has not sent any weather packets the latest 10 day(s).
| Time | Temp. | Humidity | Pressure | Rain* | Wind** | Luminosity | Snow |
|---|---|---|---|---|---|---|---|
| 1777936561 | 25.56° C | 45% | 1013 hPa | 0 mm | - | 36 W/m² | - |
| 1777936257 | 26.11° C | 44% | 1013 hPa | 0 mm | - | 38 W/m² | - |
| 1777935953 | 26.11° C | 44% | 1012.8 hPa | 0 mm | - | 40 W/m² | - |
| 1777935652 | 26.67° C | 44% | 1012.8 hPa | 0 mm | - | 42 W/m² | - |
| 1777935349 | 26.67° C | 43% | 1012.8 hPa | 0 mm | - | 47 W/m² | - |
| 1777935046 | 26.67° C | 42% | 1012.7 hPa | 0 mm | - | 49 W/m² | - |
| 1777934743 | 27.22° C | 41% | 1012.4 hPa | 0 mm | - | 49 W/m² | - |
| 1777934440 | 27.78° C | 40% | 1012.7 hPa | 0 mm | - | 50 W/m² | - |
| 1777934137 | 27.78° C | 38% | 1012.7 hPa | 0 mm | - | 54 W/m² | - |
| 1777933832 | 28.33° C | 36% | 1012.7 hPa | 0 mm | - | 59 W/m² | - |
| 1777933530 | 28.33° C | 35% | 1012.8 hPa | 0 mm | - | 63 W/m² | - |
| 1777933227 | 28.89° C | 31% | 1012.9 hPa | 0 mm | - | 81 W/m² | - |
| 1777932924 | 29.44° C | 30% | 1013 hPa | 0 mm | - | 64 W/m² | - |
| 1777932621 | 30° C | 30% | 1012.7 hPa | 0 mm | - | 93 W/m² | - |
| 1777932317 | 30° C | 28% | 1012.9 hPa | 0 mm | - | 290 W/m² | - |
| 1777932015 | 30° C | 28% | 1012.9 hPa | 0 mm | - | 193 W/m² | - |
| 1777931711 | 30° C | 28% | 1012.9 hPa | 0 mm | - | 223 W/m² | - |
| 1777931409 | 30° C | 28% | 1012.9 hPa | 0 mm | - | 167 W/m² | - |
| 1777931104 | 30.56° C | 26% | 1012.9 hPa | 0 mm | - | 164 W/m² | - |
| 1777930801 | 31.11° C | 25% | 1013.1 hPa | 0 mm | - | 318 W/m² | - |
| 1777930496 | 31.11° C | 26% | 1012.8 hPa | 0 mm | - | 420 W/m² | - |
| 1777930195 | 30.56° C | 26% | 1012.7 hPa | 0 mm | - | 439 W/m² | - |
| 1777929890 | 31.11° C | 25% | 1012.9 hPa | 0 mm | - | 459 W/m² | - |
| 1777929588 | 31.67° C | 25% | 1013 hPa | 0 mm | - | 480 W/m² | - |
| 1777929284 | 31.11° C | 26% | 1013 hPa | 0 mm | - | 502 W/m² | - |
* Rain latest hour (hover to see other rain measurements)
** Current wind speed in m/s (hover to see current wind gust speed)